CAPE
0 0 0 0 0 0 0 0 0 0 0 0 0 0 0 0 6 521 639 753 531 469 411 344 112 0 0 0 0 0 0 0 0 0 0 0 0 0 0 0 0 0 0
0 0 0 0 0 0 0 6 0 0 1 0 0 0 0 0 0 267 499 619 487 506 454 295 125 0 0 0 0 0 0 0 0 0 0 0 0 0 0 0 0 0 0
0 0 0 0 1 0 0 0 2 1 0 2 0 0 0 0 0 45 422 478 451 463 402 250 169 7 0 0 0 0 0 0 0 0 0 0 0 0 0 0 0 0 0
0 0 0 0 0 0 0 0 0 9 3 1 4 0 0 0 0 0 215 434 414 385 306 204 176 59 0 0 0 0 0 0 0 0 0 0 0 0 0 0 0 0 0
0 0 0 0 2 2 0 0 0 2 1 0 1 0 0 0 0 77 23 260 355 375 296 204 126 110 23 0 0 0 0 0 0 0 0 0 0 0 0 0 0 0 0
0 0 0 0 0 0 1 2 0 5 0 0 4 15 0 10 99 82 138 106 217 123 265 199 139 60 85 29 3 0 0 0 0 0 0 0 0 1 0 2 0 0 0
0 0 0 0 1 1 2 2 2 0 16 12 11 16 30 50 55 75 113 186 227 126 107 379 156 177 68 79 82 1 0 0 0 0 0 0 0 0 0 0 0 13 4
0 0 0 0 0 2 3 2 1 1 0 4 7 33 48 56 53 68 169 188 305 297 227 276 288 201 136 154 80 3 0 0 0 0 0 0 0 0 0 4 45 52 14
0 0 0 0 0 0 2 3 4 1 1 6 17 18 76 107 104 204 186 314 312 314 270 383 362 275 83 114 63 11 3 0 0 0 0 1 0 1 7 33 28 87 48
0 0 0 0 0 0 0 1 1 2 1 35 38 57 54 75 124 178 236 393 303 287 209 267 106 203 84 81 42 15 4 0 0 0 1 0 0 0 16 37 14 18 37
0 0 0 0 0 0 0 0 0 3 3 3 20 31 0 32 96 211 420 446 271 211 278 228 144 94 56 32 12 19 0 1 0 0 1 1 0 0 1 6 2 26 33
0 0 0 0 0 0 0 0 0 0 2 2 3 31 11 63 44 187 245 227 177 71 105 142 136 104 26 7 2 0 0 0 0 0 1 0 0 0 0 0 3 36 48
0 0 0 0 0 0 0 0 0 0 1 1 4 3 2 1 1 8 11 15 51 39 1 4 0 0 0 0 0 0 0 0 0 0 0 0 0 0 1 0 0 5 35
0 0 0 0 0 0 0 0 0 0 0 0 1 1 2 2 2 2 2 0 0 1 1 1 1 0 0 0 0 0 1 1 0 0 0 0 1 2 0 0 1 1 2
0 0 0 0 0 0 0 0 0 0 0 0 0 2 1 1 1 1 0 2 0 0 1 0 0 0 0 0 1 1 1 1 1 1 0 0 0 0 0 0 0 0 0
0 0 0 0 0 0 0 0 0 0 0 0 0 0 0 0 1 0 1 1 0 0 0 1 0 0 1 0 1 0 1 1 0 1 0 1 1 1 1 1 1 1 0
0 0 0 0 0 0 0 0 0 0 0 0 0 0 0 0 0 0 0 0 0 0 0 1 0 0 0 0 0 0 0 0 0 0 0 0 0 0 0 0 0 0 0
0 0 0 0 0 0 0 0 0 0 0 0 0 0 0 0 0 0 0 0 0 0 0 0 0 0 0 0 0 0 0 0 0 0 0 0 0 0 0 0 0 0 0
0 0 0 0 0 0 0 0 0 0 0 0 0 0 0 0 0 0 0 0 0 0 0 0 0 0 0 0 0 0 0 0 0 0 0 0 0 0 0 0 0 0 0
0 0 0 0 0 0 0 0 0 0 0 0 0 0 0 0 0 0 0 0 0 0 0 0 0 0 0 0 0 0 0 0 0 0 0 0 0 0 0 0 0 0 0
0 0 0 0 0 0 0 0 0 0 0 0 0 0 0 0 0 0 0 0 0 0 0 0 0 0 0 0 2 1 0 0 0 0 0 0 0 0 0 0 0 0 0
0 0 0 0 0 0 0 0 0 0 0 0 0 0 0 0 0 0 0 0 0 0 0 0 0 0 0 0 2 1 0 0 0 0 0 0 2 2 2 0 0 3 7
0 0 0 0 0 0 0 0 0 0 0 0 0 0 0 0 0 0 0 0 0 0 0 0 0 0 0 0 0 0 2 1 0 0 1 1 0 2 0 0 0 0 0
0 0 0 0 0 0 0 0 0 0 0 0 0 0 0 0 0 0 0 0 0 0 0 0 0 0 0 0 0 0 0 0 0 1 1 0 0 3 2 0 0 0 0
0 0 0 0 0 0 0 0 0 0 0 0 0 0 0 0 0 0 0 0 0 0 0 0 0 0 0 0 0 0 0 0 0 0 0 0 0 0 0 0 0 0 0
0 0 0 0 0 0 0 0 0 0 0 0 0 0 0 0 0 0 0 0 0 0 0 0 0 0 0 0 0 0 0 0 0 0 0 0 0 0 0 1 0 0 3
CIN
-0 -0 -0 -0 -0 -0 -0 -0 -0 -0 -0 -0 -0 -0 -0 -0 -17 -14 -3 -4 -21 -24 -22 -25 -32 -0 -0 -0 -0 -0 -0 -0 -0 -0 -0 -0 -0 -0 -0 -0 -0 -0 -0
-0 -0 -0 -0 -0 -0 -0 -18 -0 -0 -6 -0 -0 -0 -0 -0 -0 -24 -8 -3 -14 -12 -12 -22 -44 -0 -0 -0 -0 -0 -0 -0 -0 -0 -0 -0 -0 -0 -0 -0 -0 -0 -0
-0 -0 -0 -0 -0 -0 -0 -0 -10 -5 -15 -12 -0 -0 -0 -0 -0 -17 -5 -3 -4 -7 -13 -20 -25 -51 -0 -0 -0 -0 -0 -0 -0 -0 -0 -0 -0 -0 -0 -0 -0 -0 -0
-0 -0 -0 -0 -0 -0 -0 -0 -1 -9 -16 -3 -13 -0 -0 -0 -0 -0 -19 -7 -2 -3 -17 -28 -48 -70 -0 -0 -0 -0 -0 -0 -0 -0 -0 -0 -0 -0 -0 -0 -0 -0 -0
-0 -0 -0 -0 -0 -0 -0 -0 -0 -9 -15 -1 -5 -0 -0 -0 -1 -22 -30 -21 -5 -5 -2 -20 -32 -27 -89 -5 -0 -0 -0 -0 -0 -0 -0 -0 -0 -0 -0 -0 -0 -0 -0
-0 -0 -0 -0 -0 -0 -0 -0 -0 -16 -0 -5 -12 -10 -0 -15 -17 -20 -13 -22 -31 -56 -9 -12 -1 -37 -78 -59 -55 -0 -0 -0 -0 -0 -0 -0 -0 -118 -0 -12 -0 -0 -0
-0 -0 -0 -0 -0 -0 -0 -0 -0 -0 -15 -11 -13 -12 -15 -21 -22 -30 -17 -3 -10 -21 -2 -1 -32 -14 -61 -63 -24 -15 -0 -0 -0 -0 -0 -0 -0 -0 -0 -0 -0 -48 -27
-0 -0 -0 -0 -0 -0 -0 -0 -0 -0 -0 -22 -14 -18 -21 -26 -33 -42 -22 -15 -8 -12 -35 -31 -2 -17 -33 -41 -43 -77 -0 -0 -0 -0 -0 -6 -0 -0 -0 -31 -45 -36 -65
-0 -0 -0 -0 -0 -0 -0 -0 -0 -0 -4 -14 -13 -13 -14 -19 -28 -39 -43 -36 -32 -14 -26 -12 -1 -6 -55 -28 -41 -13 -68 -0 -0 -1 -0 -23 -68 -82 -70 -45 -36 -24 -12
-0 -0 -0 -0 -0 -0 -0 -0 -0 -0 -0 -16 -15 -23 -37 -25 -18 -26 -27 -26 -48 -25 -38 -9 -22 -25 -59 -33 -57 -35 -90 -0 -141 -0 -2 -2 -0 -10 -39 -45 -57 -50 -13
-0 -0 -0 -0 -0 -0 -0 -0 -0 -0 -0 -2 -15 -13 -0 -38 -26 -22 -12 -20 -53 -57 -41 -78 -22 -34 -53 -92 -104 -49 -0 -0 -0 -0 -0 -0 -0 -0 -26 -35 -24 -14 -7
-0 -0 -0 -0 -0 -0 -0 -0 -0 -0 -0 -0 -0 -1 -23 -9 -25 -15 -30 -29 -71 -77 -49 -80 -29 -38 -43 -98 -123 -0 -0 -0 -0 -0 -0 -0 -0 -0 -0 -0 -21 -7 -3
-0 -0 -0 -0 -0 -0 -0 -0 -0 -0 -0 -0 -0 -0 -0 -0 -0 -74 -47 -41 -46 -55 -0 -57 -0 -0 -0 -0 -0 -0 -0 -0 -0 -0 -0 -0 -0 -0 -0 -0 -0 -19 -8
-0 -0 -0 -0 -0 -0 -0 -0 -0 -0 -0 -0 -0 -0 -0 -0 -0 -0 -0 -0 -0 -0 -0 -0 -0 -0 -0 -0 -0 -0 -0 -0 -0 -0 -0 -0 -0 -0 -1 -0 -2 -6 -4
-0 -0 -0 -0 -0 -0 -0 -0 -0 -0 -0 -0 -0 -0 -0 -0 -0 -0 -0 -0 -0 -0 -0 -0 -0 -0 -0 -0 -0 -0 -0 -0 -0 -0 -0 -0 -0 -0 -0 -0 -0 -0 -0
-0 -0 -0 -0 -0 -0 -0 -0 -0 -0 -0 -0 -0 -0 -0 -0 -0 -0 -0 -0 -0 -0 -0 -0 -0 -0 -0 -0 -0 -0 -0 -0 -0 -0 -0 -0 -0 -0 -0 -0 -0 -0 -0
-0 -0 -0 -0 -0 -0 -0 -0 -0 -0 -0 -0 -0 -0 -0 -0 -0 -0 -0 -0 -0 -0 -0 -0 -0 -0 -0 -0 -0 -0 -0 -0 -0 -0 -0 -0 -0 -0 -0 -0 -0 -0 -0
-0 -0 -0 -0 -0 -0 -0 -0 -0 -0 -0 -0 -0 -0 -0 -0 -0 -0 -0 -0 -0 -0 -0 -0 -0 -0 -0 -0 -0 -0 -0 -0 -0 -0 -0 -0 -0 -0 -0 -0 -0 -0 -0
-0 -0 -0 -0 -0 -0 -0 -0 -0 -0 -0 -0 -0 -0 -0 -0 -0 -0 -0 -0 -0 -0 -0 -0 -0 -0 -0 -0 -0 -0 -0 -0 -0 -0 -0 -0 -0 -0 -0 -0 -0 -0 -0
-0 -0 -0 -0 -0 -0 -0 -0 -0 -0 -0 -0 -0 -0 -0 -0 -0 -0 -0 -0 -0 -0 -0 -0 -0 -0 -0 -0 -0 -0 -0 -0 -0 -0 -0 -0 -0 -0 -0 -0 -0 -0 -0
-0 -0 -0 -0 -0 -0 -0 -0 -0 -0 -0 -0 -0 -0 -0 -0 -0 -0 -0 -0 -0 -0 -0 -0 -0 -0 -0 -0 -0 -0 -0 -0 -0 -0 -0 -0 -0 -0 -0 -0 -0 -0 -0
-0 -0 -0 -0 -0 -0 -0 -0 -0 -0 -0 -0 -0 -0 -0 -0 -0 -0 -0 -0 -0 -0 -0 -0 -0 -0 -0 -0 -0 -0 -0 -0 -0 -0 -0 -0 -0 -1 -0 -0 -0 -0 -0
-0 -0 -0 -0 -0 -0 -0 -0 -0 -0 -0 -0 -0 -0 -0 -0 -0 -0 -0 -0 -0 -0 -0 -0 -0 -0 -0 -0 -0 -0 -0 -0 -0 -0 -0 -0 -0 -2 -0 -0 -0 -0 -0
-0 -0 -0 -0 -0 -0 -0 -0 -0 -0 -0 -0 -0 -0 -0 -0 -0 -0 -0 -0 -0 -0 -0 -0 -0 -0 -0 -0 -0 -0 -0 -0 -0 -0 -0 -0 -0 -0 -1 -0 -0 -0 -0
-0 -0 -0 -0 -0 -0 -0 -0 -0 -0 -0 -0 -0 -0 -0 -0 -0 -0 -0 -0 -0 -0 -0 -0 -0 -0 -0 -0 -0 -0 -0 -0 -0 -0 -0 -0 -0 -0 -0 -0 -0 -0 -0
-0 -0 -0 -0 -0 -0 -0 -0 -0 -0 -0 -0 -0 -0 -0 -0 -0 -0 -0 -0 -0 -0 -0 -0 -0 -0 -0 -0 -0 -0 -0 -0 -0 -0 -0 -0 -0 -0 -0 -4 -0 -1 -0
Wind_Speed
15 16 16 15 17 17 17 20 17 17 10 10 8 10 10 5 4 8 14 14 14 17 14 11 12 8 9 11 10 5 7 3 5 4 0 2 5 5 4 5 4 6 6
15 18 17 16 16 16 17 14 14 14 11 9 8 7 7 7 5 7 10 14 15 17 16 14 13 12 9 9 8 8 4 3 5 5 4 2 3 3 6 5 5 7 5
14 17 18 16 14 15 15 15 12 11 9 9 7 5 4 3 7 4 9 12 14 16 17 15 13 14 11 10 10 9 10 7 4 6 6 3 5 3 4 8 6 7 5
16 15 16 18 17 17 15 15 14 11 8 9 8 11 8 10 7 10 6 9 15 16 18 16 15 14 11 13 11 9 9 7 9 2 8 2 3 4 1 3 5 5 6
13 15 16 18 17 14 13 13 13 8 8 10 11 10 11 7 6 5 9 11 11 19 18 19 19 14 11 11 12 12 12 10 9 8 7 7 2 2 2 3 3 3 4
14 13 13 14 14 13 12 12 11 8 7 9 11 12 12 9 5 8 8 9 9 12 18 18 14 14 14 12 11 11 11 9 8 8 7 9 6 4 3 2 2 5 4
10 12 14 14 15 15 14 11 11 10 7 9 11 12 10 8 8 8 8 10 9 8 13 16 14 11 13 14 12 11 12 12 10 8 8 7 6 5 4 3 3 4 3
6 10 11 10 12 13 12 12 12 12 9 9 9 10 11 8 8 8 8 9 9 9 8 12 12 14 13 12 13 12 12 12 10 15 8 8 7 7 6 5 5 2 3
8 10 11 10 12 12 12 10 12 12 10 9 8 11 10 9 9 11 10 10 10 9 9 13 14 14 13 13 12 9 13 14 14 13 14 8 6 3 2 2 4 5 4
7 7 9 13 12 11 12 13 14 12 8 7 5 5 7 8 11 9 11 11 11 10 9 9 10 10 11 12 13 11 12 12 11 11 13 9 5 4 3 2 2 3 2
8 8 8 10 10 10 13 14 15 15 15 10 4 4 4 7 9 11 11 10 6 9 11 12 10 10 12 11 11 12 11 14 15 14 14 13 8 5 4 4 3 3 3
6 7 7 7 10 12 13 15 16 16 16 14 10 6 5 10 1 5 5 7 8 6 8 7 9 9 13 11 12 8 8 9 7 4 5 8 5 7 5 4 4 5 5
5 6 7 8 10 11 12 13 15 15 14 13 13 14 13 12 8 7 0 3 9 6 6 7 9 8 8 8 7 9 8 6 6 6 6 7 7 7 6 6 7 7 6
2 4 7 7 7 8 9 11 12 11 11 13 14 16 14 12 9 9 10 11 9 6 6 5 4 5 7 6 6 6 6 6 5 5 5 6 8 8 8 7 8 7 7
0 2 4 6 7 7 7 7 8 10 10 10 10 11 13 13 12 13 13 10 12 11 9 12 11 10 10 4 5 5 6 6 5 5 5 5 7 10 9 7 8 8 8
3 0 3 5 6 7 7 7 7 8 9 11 11 10 11 10 11 10 11 12 12 12 12 10 11 11 8 12 13 5 3 4 3 2 1 2 2 4 4 6 7 4 5
4 1 1 2 3 5 6 7 7 7 7 7 9 9 9 10 10 10 12 10 10 9 10 10 11 11 9 14 13 9 5 5 5 5 4 4 3 4 4 4 4 4 5
5 4 3 2 2 2 3 4 5 6 7 7 7 7 7 8 9 9 10 9 6 7 7 8 10 10 8 13 13 7 5 5 6 6 5 5 5 6 6 6 5 4 3
7 5 4 3 2 3 3 4 4 6 6 6 6 7 6 7 7 7 7 5 5 6 6 6 9 9 7 15 16 8 6 8 6 5 5 5 5 8 8 4 4 5 4
5 6 4 3 2 3 2 3 5 6 6 6 6 6 6 6 6 6 6 4 4 4 4 6 8 10 8 16 18 12 6 6 4 5 6 6 5 7 6 3 4 5 3
7 5 5 4 4 4 2 1 5 5 2 3 4 5 6 6 6 5 4 5 5 6 6 7 6 7 7 10 17 17 6 5 4 4 4 5 14 12 10 8 4 4 4
7 8 6 5 4 5 3 3 4 5 3 2 4 4 4 3 4 4 5 6 6 6 6 6 5 5 6 10 13 14 13 10 5 4 3 4 13 11 12 8 10 11 10
7 6 7 7 6 6 5 5 4 5 4 3 4 3 4 4 4 4 6 4 5 4 4 4 3 3 3 4 13 12 12 10 6 5 9 13 13 11 9 12 14 12 4
9 8 8 8 8 7 7 7 6 6 4 4 4 3 4 2 3 4 4 4 4 4 3 3 3 2 2 3 2 3 4 8 5 8 7 9 10 9 10 8 7 3 3
9 10 11 8 9 8 8 8 7 7 6 5 4 3 3 3 3 4 3 4 3 3 2 2 2 3 3 4 7 7 4 3 6 8 3 3 4 5 4 4 4 4 4
7 9 11 11 10 9 8 8 8 8 7 6 5 4 4 3 3 3 2 3 5 5 4 5 3 2 4 6 8 10 11 12 12 4 4 4 4 5 5 5 6 5 6
Wind_Direction
316 315 317 316 306 303 292 257 237 241 219 218 222 220 218 213 214 192 207 207 196 188 189 181 183 180 173 177 181 155 166 164 157 136 223 256 206 207 215 215 214 214 193
319 315 316 315 313 312 317 293 226 232 216 210 223 217 220 216 210 194 205 209 198 189 185 185 177 180 173 176 179 177 155 171 165 165 125 209 307 254 217 208 214 223 204
316 314 319 319 316 315 319 319 251 236 208 207 212 224 207 219 214 232 206 207 202 194 190 186 181 186 176 178 184 178 178 186 197 182 155 167 212 175 213 214 201 207 205
321 324 321 323 328 316 314 306 310 225 204 200 205 221 220 210 216 210 208 205 201 194 192 185 186 184 186 181 185 182 181 161 195 189 218 225 149 182 186 227 209 201 210
324 321 323 315 314 310 308 304 289 267 211 206 210 207 222 225 197 192 217 208 213 196 197 190 187 186 186 177 183 181 183 188 182 199 204 221 228 219 163 190 214 210 214
321 320 318 321 320 321 322 310 305 255 227 210 217 209 214 213 203 208 208 219 219 226 193 182 191 174 185 183 187 186 183 181 196 190 206 214 186 192 178 206 201 193 222
311 320 329 333 328 325 323 330 336 315 236 225 213 215 212 211 218 202 211 215 220 215 227 186 172 189 181 187 188 182 184 188 196 180 201 215 203 163 172 174 241 223 236
307 323 331 327 328 327 334 339 334 313 275 231 224 218 217 218 220 213 204 219 214 222 189 191 185 189 185 188 189 184 187 193 197 198 189 212 210 207 195 158 168 231 247
342 336 341 342 336 344 337 337 335 315 298 229 227 215 209 215 220 219 206 199 205 209 189 199 202 192 189 186 193 203 192 190 193 208 205 201 216 197 177 184 173 214 248
341 342 348 348 343 345 347 357 356 350 319 244 239 237 222 223 219 221 221 207 193 184 179 178 191 185 184 186 187 194 195 190 195 202 202 198 175 164 146 130 91 112 155
342 341 353 350 341 351 4 2 7 16 19 21 303 212 307 279 230 212 212 200 165 179 182 171 199 185 190 187 192 198 196 203 205 201 196 197 179 199 181 176 160 185 187
347 347 349 350 357 360 6 10 9 20 14 17 11 56 2 222 245 211 186 152 158 160 170 159 198 199 200 194 189 183 178 179 158 150 184 174 159 193 184 177 195 217 215
352 347 347 6 5 5 9 10 9 14 10 14 28 45 32 43 50 52 228 146 108 134 125 154 168 167 160 158 175 178 169 183 201 196 195 200 204 225 223 222 229 233 221
356 350 353 355 5 7 4 8 12 18 12 18 20 33 29 34 34 49 51 56 58 75 109 108 120 160 149 162 165 153 149 171 192 193 192 192 195 213 205 205 207 204 204
206 359 356 350 7 8 357 359 11 14 15 34 26 29 36 31 29 39 47 40 60 51 56 79 73 65 58 45 129 142 169 173 183 189 198 204 203 209 211 204 210 202 219
235 40 7 13 9 7 355 359 3 9 15 21 26 37 41 37 40 30 49 52 52 62 63 63 69 66 55 47 50 54 151 153 161 152 153 20 346 346 354 358 353 343 260
237 156 13 50 24 9 6 3 357 15 22 23 20 24 41 33 43 42 42 41 45 56 64 67 67 62 51 42 47 56 65 71 75 81 67 49 37 18 359 357 25 28 27
209 208 178 129 78 25 21 358 24 24 24 26 23 18 34 42 42 46 49 36 28 42 56 60 79 63 48 38 32 47 71 73 66 62 50 39 24 22 9 353 341 317 320
185 193 141 142 172 106 3 3 54 62 38 23 23 21 31 46 44 45 47 53 54 54 60 61 66 75 53 42 32 39 49 53 52 53 65 60 38 24 18 353 329 306 292
166 154 171 182 185 147 72 28 60 65 42 30 20 30 33 53 46 38 30 34 61 63 61 69 66 79 59 47 40 30 35 47 39 19 31 73 59 34 13 359 288 297 280
169 161 180 191 229 128 109 123 107 99 55 43 52 50 42 37 47 42 31 37 54 53 50 64 68 68 75 59 58 49 44 37 24 16 16 32 15 355 344 332 296 271 281
181 179 187 210 213 149 174 252 143 155 148 139 108 84 93 67 55 61 36 48 54 67 60 63 51 53 52 72 45 38 39 30 20 4 4 349 347 347 342 334 320 313 302
193 179 186 203 199 177 183 220 194 158 174 181 136 126 109 94 99 73 51 63 55 68 64 71 67 60 47 58 44 25 18 18 7 353 341 335 332 331 340 337 337 337 306
193 185 185 202 204 190 191 204 180 160 182 187 138 127 107 118 88 80 78 70 65 60 68 78 81 64 51 89 64 31 21 12 355 348 337 334 338 330 318 324 320 281 284
194 185 188 192 203 189 194 192 181 162 185 188 154 159 130 94 71 79 99 104 109 112 121 102 70 37 16 16 10 3 353 341 330 334 327 339 341 337 325 328 323 314 297
189 194 197 196 195 189 187 182 175 168 183 180 170 181 162 150 134 119 94 87 116 79 66 75 74 11 359 11 354 349 343 338 336 355 343 344 334 325 329 325 315 297 288